Time_in_sec,Latitude,Longitude,Altitude,Nbsat_max_qualitysignal,Nbsat_locked,valid_data
1323442433.40076923,47.37540436,8.55010605,489.25833130,0,8,1
1323442549.05349565,47.37545395,8.55012035,480.11846924,3,11,1
1323442549.10553718,47.37545395,8.55012035,480.12377930,3,11,1
1323442549.15251422,47.37545013,8.55012131,480.12905884,3,11,1
1323442549.20148802,47.37545013,8.55012131,480.13430786,3,11,1
1323442549.25353622,47.37545013,8.55012321,480.66406250,3,11,1
1323442549.30148244,47.37545013,8.55012321,480.68133545,3,11,1
1323442549.35353065,47.37545013,8.55012321,480.68859863,3,11,1
1323442549.40177917,47.37545013,8.55012417,480.69580078,3,11,1
1323442549.45348620,47.37545013,8.55012417,480.70297241,3,11,1
1323442549.50553203,47.37545013,8.55012512,481.24044800,3,11,1
1323442549.55263352,47.37545013,8.55012512,481.24963379,3,11,1
1323442549.60148907,47.37545013,8.55012608,481.25878906,3,11,1
1323442549.65331912,47.37545013,8.55012608,481.26788330,3,11,1
1323442549.70458150,47.37545013,8.55012608,481.27694702,3,11,1
1323442549.75974822,47.37545013,8.55012798,481.80035400,3,11,1
1323442549.80462289,47.37545013,8.55012703,481.82727051,3,11,1
1323442549.85366106,47.37545013,8.55012703,481.83828735,3,11,1
1323442549.90127587,47.37544632,8.55012703,481.84930420,3,11,1
1323442549.95357108,47.37544632,8.55012703,481.86029053,3,11,1
1323442550.00160241,47.37544632,8.55012989,482.37899780,3,11,1
1323442550.05262327,47.37544632,8.55012894,482.40335083,3,11,1
1323442550.11322665,47.37544632,8.55012894,482.41622925,3,11,1
1323442550.15571141,47.37544632,8.55012894,482.43164062,3,11,1
1323442550.20559955,47.37544632,8.55012894,482.44189453,3,11,1
1323442550.25353193,47.37544632,8.55013084,482.95645142,3,11,1
1323442550.30515289,47.37544632,8.55013084,482.99249268,3,11,1
1323442550.35255361,47.37544632,8.55013084,483.00732422,3,11,1
1323442550.40147185,47.37544250,8.55013084,483.02212524,3,11,1
1323442550.45349407,47.37544250,8.55013180,483.03689575,3,11,1
1323442550.50551367,47.37544250,8.55013371,483.55926514,3,11,1
1323442550.55356407,47.37544250,8.55013371,483.57598877,3,11,1
1323442550.60452342,47.37544250,8.55013371,483.59268188,3,11,1
1323442550.66157508,47.37544250,8.55013371,483.60937500,3,11,1
1323442550.70502758,47.37544250,8.55013466,483.62933350,3,11,1
1323442550.76088119,47.37544250,8.55013657,484.12106323,3,11,1
1323442550.80149198,47.37544250,8.55013561,484.15454102,3,11,1
1323442550.85249925,47.37544250,8.55013657,484.16931152,3,11,1
1323442550.90448546,47.37544250,8.55013657,484.18777466,3,11,1
1323442550.95409417,47.37544250,8.55013657,484.20617676,7,11,1
1323442551.00154662,47.37544250,8.55013752,484.70092773,7,11,1
1323442551.06550193,47.37544250,8.55013847,484.72113037,7,11,1
1323442551.10455680,47.37544250,8.55013847,484.74533081,7,11,1
1323442551.15280914,47.37544250,8.55013847,484.76144409,7,11,1
1323442551.20459747,47.37543869,8.55013847,484.78155518,7,11,1
1323442551.25350261,47.37543869,8.55014038,485.25268555,7,11,1
1323442551.30553508,47.37543869,8.55014133,485.28948975,7,11,1
1323442551.35351872,47.37543869,8.55014133,485.31134033,7,11,1
1323442551.40476060,47.37543869,8.55014133,485.33312988,7,11,1
1323442551.46550822,47.37543869,8.55014133,485.35488892,7,11,1
1323442551.50562716,47.37543869,8.55014229,485.83233643,7,11,1
1323442551.56398010,47.37543869,8.55014229,485.85113525,7,11,1
1323442551.60626864,47.37543869,8.55014324,485.87924194,7,11,1
1323442551.65271521,47.37543869,8.55014324,485.89794922,7,11,1
1323442551.70463514,47.37543869,8.55014324,485.92132568,7,11,1
1323442551.75352859,47.37543488,8.55014515,486.36935425,7,11,1
1323442551.81288075,47.37543488,8.55014420,486.40493774,7,11,1
1323442551.86547804,47.37543488,8.55014515,486.43490601,7,11,1
1323442551.90554333,47.37543488,8.55014515,486.45983887,7,11,1
1323442551.95515013,47.37543488,8.55014515,486.47976685,7,11,1
1323442552.00150442,47.37543488,8.55014706,486.91323853,7,11,1
1323442552.05254030,47.37543488,8.55014610,486.94305420,7,11,1
1323442552.10152769,47.37543488,8.55014706,486.96951294,7,11,1
1323442552.15351963,47.37543488,8.55014706,486.99591064,7,11,1
1323442552.20148802,47.37543488,8.55014706,487.02230835,7,11,1
1323442552.26152134,47.37543488,8.55014801,487.43954468,7,11,1
1323442552.31321311,47.37543488,8.55014801,487.47158813,7,11,1
1323442552.36552286,47.37543488,8.55014801,487.49932861,7,11,1
1323442552.40532756,47.37543488,8.55014801,487.52700806,7,11,1
1323442552.45250177,47.37543488,8.55014801,487.54916382,7,11,1
1323442552.50165081,47.37543488,8.55014896,487.96041870,7,11,1
1323442552.55351305,47.37543488,8.55014896,487.98950195,7,11,1
1323442552.61334419,47.37543488,8.55014992,488.01855469,7,11,1
1323442552.66164899,47.37543488,8.55014992,488.05337524,7,11,1
1323442552.70463681,47.37543106,8.55014992,488.08233643,7,11,1
1323442552.76546907,47.37543106,8.55015087,488.41433716,7,11,1
1323442552.81351733,47.37543488,8.55014992,488.45236206,7,11,1
1323442552.85255551,47.37543106,8.55014992,488.48245239,7,11,1
1323442552.91255331,47.37543106,8.55014992,488.50653076,7,11,1
1323442552.95124173,47.37543106,8.55014992,488.54257202,7,11,1
1323442553.00531626,47.37543106,8.55015087,488.82626343,7,11,1
1323442553.06193590,47.37543106,8.55015087,488.85720825,7,11,1
1323442553.10554004,47.37543106,8.55015087,488.89431763,7,11,1
1323442553.15356278,47.37543106,8.55015087,488.91903687,7,11,1
1323442553.21354961,47.37543106,8.55015087,488.94985962,7,11,1
1323442553.26456094,47.37543106,8.55015278,489.28363037,7,11,1
1323442553.30462742,47.37543106,8.55015278,489.31555176,7,11,1
1323442553.36152935,47.37543106,8.55015278,489.34106445,7,11,1
1323442553.41255856,47.37543106,8.55015278,489.37927246,7,11,1
1323442553.45352221,47.37543106,8.55015278,489.41107178,7,11,1
1323442553.51323152,47.37543106,8.55015373,489.68676758,7,11,1
1323442553.56163549,47.37543106,8.55015373,489.72235107,7,11,1
1323442553.60151362,47.37543106,8.55015373,489.75497437,7,11,1
1323442553.66153264,47.37543106,8.55015373,489.78106689,7,11,1
1323442553.70153451,47.37543106,8.55015469,489.82015991,7,11,1
1323442553.75350451,47.37543106,8.55015469,490.06649780,7,11,1
1323442553.80146194,47.37542725,8.55015469,490.09530640,7,11,1
1323442553.86149979,47.37542725,8.55015469,490.12860107,7,11,1
1323442553.90451479,47.37542725,8.55015469,490.16851807,7,11,1
1323442553.96552896,47.37542725,8.55015469,490.19509888,7,11,1
1323442554.01351547,47.37542725,8.55015564,490.43579102,7,11,1
1323442554.05272889,47.37542725,8.55015564,490.46972656,7,11,1
1323442554.11291146,47.37542725,8.55015659,490.49685669,7,11,1
1323442554.16554475,47.37542725,8.55015659,490.53750610,7,11,1
1323442554.20563507,47.37542725,8.55015659,490.57138062,7,11,1
1323442554.26576781,47.37542725,8.55015659,490.77774048,7,11,1
1323442554.31363392,47.37542725,8.55015564,490.81057739,7,11,1
1323442554.35265207,47.37542725,8.55015659,490.84494019,7,11,1
1323442554.41349220,47.37542725,8.55015659,490.87243652,7,11,1
1323442554.45271540,47.37542725,8.55015659,490.91357422,7,11,1
1323442554.50452995,47.37542725,8.55015659,491.10305786,7,11,1
1323442554.55354047,47.37542725,8.55015564,491.12445068,7,11,1
1323442554.60554600,47.37542725,8.55015564,491.15911865,7,11,1
1323442554.65352654,47.37542725,8.55015564,491.19378662,7,11,1
1323442554.70554638,47.37542725,8.55015564,491.22839355,7,11,1
1323442554.75652099,47.37542725,8.55015564,491.41012573,7,11,1
1323442554.80464292,47.37542725,8.55015564,491.43179321,7,11,1
1323442554.85269403,47.37542725,8.55015564,491.46679688,7,11,1
1323442554.90469098,47.37542725,8.55015564,491.50173950,7,11,1
1323442554.95361519,47.37542343,8.55015564,491.53668213,6,11,1
1323442555.00552440,47.37542343,8.55015564,491.69580078,6,11,1
1323442555.05353189,47.37542343,8.55015564,491.73110962,6,11,1
1323442555.10550809,47.37542343,8.55015564,491.76635742,6,11,1
1323442555.16157413,47.37542343,8.55015564,491.80160522,6,11,1
1323442555.20148683,47.37542343,8.55015564,491.84387207,6,11,1
1323442555.25343800,47.37542343,8.55015469,491.99444580,6,11,1
1323442555.30542731,47.37542343,8.55015469,492.01742554,6,11,1
1323442555.36553383,47.37542343,8.55015469,492.05285645,6,11,1
1323442555.40862417,47.37542343,8.55015469,492.09536743,6,11,1
1323442555.46151376,47.37542343,8.55015469,492.12365723,6,11,1
1323442555.50448251,47.37542343,8.55015373,492.26364136,6,11,1
1323442555.55334020,47.37542343,8.55015373,492.29214478,6,11,1
1323442555.60490131,47.37542343,8.55015373,492.32772827,6,11,1
1323442555.65324068,47.37542343,8.55015373,492.36328125,6,11,1
1323442555.70166707,47.37542343,8.55015373,492.39877319,6,11,1
1323442555.76163530,47.37542343,8.55015469,492.43423462,6,11,1
1323442555.80551863,47.37542343,8.55015373,492.57427979,6,11,1
1323442555.85352969,47.37542343,8.55015373,492.60287476,6,11,1
1323442555.90453601,47.37542343,8.55015373,492.63858032,6,11,1
1323442555.95327425,47.37542343,8.55015373,492.67425537,6,11,1
1323442556.01355600,47.37542343,8.55015278,492.80865479,6,11,1
1323442556.05263090,47.37542343,8.55015373,492.83673096,6,11,1
1323442556.10462332,47.37542343,8.55015373,492.86538696,6,11,1
1323442556.16509080,47.37542343,8.55015373,492.90118408,6,11,1
1323442556.20462489,47.37542343,8.55015373,492.94412231,6,11,1
1323442556.25350595,47.37542343,8.55015373,492.97271729,6,11,1
1323442556.30109692,47.37542343,8.55015278,493.08892822,6,11,1
1323442556.35314727,47.37542343,8.55015278,493.12487793,6,11,1
1323442556.40148830,47.37542343,8.55015278,493.16079712,6,11,1
1323442556.45309114,47.37541962,8.55015373,493.19671631,6,11,1
1323442556.50154471,47.37541962,8.55015278,493.32382202,6,11,1
1323442556.56556749,47.37541962,8.55015278,493.34927368,6,11,1
1323442556.60152864,47.37541962,8.55015278,493.39251709,6,11,1
1323442556.65353870,47.37541962,8.55015278,493.42132568,6,11,1
1323442556.70495129,47.37541962,8.55015278,493.45730591,6,11,1
1323442556.75278974,47.37541962,8.55015278,493.49325562,6,11,1
1323442556.80152845,47.37541962,8.55015182,493.61828613,6,11,1
1323442556.85366869,47.37541962,8.55015182,493.65447998,6,11,1
1323442556.90471554,47.37541962,8.55015182,493.69064331,6,11,1
1323442556.95356631,47.37541962,8.55015182,493.72677612,5,11,1
1323442557.00565052,47.37541962,8.55015087,493.81872559,5,11,1
1323442557.05353451,47.37541962,8.55015087,493.85498047,5,11,1
1323442557.10556006,47.37541962,8.55015087,493.89120483,5,11,1
1323442557.15281177,47.37541962,8.55015087,493.92736816,5,11,1
1323442557.20548749,47.37541962,8.55015087,493.96353149,5,11,1
1323442557.25265622,47.37541962,8.55014896,494.02890015,5,11,1
1323442557.30567050,47.37541580,8.55014896,494.04959106,5,11,1
1323442557.35350227,47.37541580,8.55014896,494.08566284,5,11,1
1323442557.40554380,47.37541580,8.55014896,494.12167358,5,11,1
1323442557.45353508,47.37541580,8.55014896,494.15768433,5,11,1
1323442557.50464082,47.37541580,8.55014610,494.17684937,5,11,1
1323442557.55432963,47.37541580,8.55014610,494.21261597,5,11,1
1323442557.60740209,47.37541580,8.55014610,494.24838257,5,11,1
1323442557.65366745,47.37541580,8.55014610,494.28411865,5,11,1
1323442557.70461273,47.37541580,8.55014610,494.31982422,5,11,1
1323442557.76454306,47.37541580,8.55014420,494.31375122,5,11,1
1323442557.80464244,47.37541580,8.55014420,494.35623169,5,11,1
1323442557.85353661,47.37541580,8.55014420,494.38449097,5,11,1
1323442557.90452552,47.37541580,8.55014420,494.41983032,5,11,1
1323442557.95262527,47.37541580,8.55014420,494.45510864,5,11,1
1323442558.00151229,47.37541199,8.55014229,494.47705078,5,11,1
1323442558.05250025,47.37541199,8.55014229,494.51217651,5,11,1
1323442558.10464478,47.37541199,8.55014229,494.54730225,5,11,1
1323442558.15353084,47.37541199,8.55014229,494.58239746,5,11,1
1323442558.20149326,47.37541199,8.55014229,494.61746216,5,11,1
1323442558.25519323,47.37541199,8.55014133,494.65762329,5,11,1
1323442558.31252241,47.37541199,8.55014133,494.69256592,5,11,1
1323442558.35263968,47.37541199,8.55014133,494.73443604,5,11,1
1323442558.40536952,47.37541199,8.55014133,494.76235962,5,11,1
1323442558.45339847,47.37541199,8.55014038,494.79718018,5,11,1
1323442558.50456166,47.37540817,8.55013943,494.87734985,5,11,1
1323442558.55215669,47.37540817,8.55013943,494.89398193,5,11,1
1323442558.60450816,47.37540817,8.55013943,494.92877197,5,11,1
1323442558.65353489,47.37540817,8.55013943,494.96353149,5,11,1
1323442558.70128870,47.37540817,8.55013943,494.99822998,5,11,1
1323442558.75653100,47.37540817,8.55013657,495.07556152,5,11,1
1323442558.80127072,47.37540817,8.55013657,495.11029053,5,11,1
1323442558.85253835,47.37540817,8.55013657,495.14498901,5,11,1
1323442558.90461946,47.37540817,8.55013561,495.17965698,5,11,1
1323442558.95350647,47.37540817,8.55013561,495.21426392,3,11,1
1323442559.00141788,47.37540817,8.55013466,495.30966187,3,11,1
1323442559.05354476,47.37540817,8.55013466,495.34439087,3,11,1
1323442559.10108972,47.37540817,8.55013466,495.37905884,3,11,1
1323442559.15323305,47.37540817,8.55013371,495.41372681,3,11,1
1323442559.20147419,47.37540817,8.55013371,495.44836426,3,11,1
1323442559.25325012,47.37540817,8.55013275,495.57202148,3,11,1
1323442559.30816460,47.37540817,8.55013275,495.60693359,3,11,1
1323442559.35479450,47.37540817,8.55013275,495.64184570,3,11,1
1323442559.40151691,47.37540817,8.55013275,495.67669678,3,11,1
1323442559.45351171,47.37540817,8.55013275,495.71154785,3,11,1
1323442559.50148797,47.37540817,8.55013275,495.83721924,3,11,1
1323442559.55258250,47.37540817,8.55013275,495.87234497,3,11,1
1323442559.60151577,47.37540817,8.55013275,495.90740967,3,11,1
1323442559.65310025,47.37540817,8.55013275,495.94244385,3,11,1
1323442559.70453811,47.37540817,8.55013275,495.97744751,3,11,1
1323442559.75674534,47.37540817,8.55013180,496.11123657,3,11,1
1323442559.80565381,47.37540817,8.55013180,496.13226318,3,11,1
1323442559.85403991,47.37540817,8.55013180,496.16741943,3,11,1
1323442559.90458250,47.37540817,8.55013180,496.20254517,3,11,1
1323442559.95364571,47.37540817,8.55013180,496.23764038,3,11,1
1323442560.00697970,47.37540817,8.55013180,496.36892700,3,11,1
1323442560.05286264,47.37540436,8.55013180,496.40429688,3,11,1
1323442560.10565448,47.37540436,8.55013180,496.43966675,3,11,1
1323442560.16555667,47.37540436,8.55013180,496.47497559,3,11,1
1323442560.20566249,47.37540436,8.55013180,496.51730347,3,11,1
1323442560.25351357,47.37540436,8.55013084,496.64334106,3,11,1
1323442560.30468678,47.37540436,8.55013180,496.66726685,3,11,1
1323442560.35276079,47.37540436,8.55013180,496.70272827,3,11,1
1323442560.40549827,47.37540436,8.55013180,496.73815918,3,11,1
1323442560.45253563,47.37540436,8.55013180,496.77355957,3,11,1
1323442560.50451779,47.37540436,8.55013084,496.91006470,3,11,1
1323442560.55377913,47.37540436,8.55013084,496.94580078,3,11,1
1323442560.60450268,47.37540436,8.55013084,496.98150635,3,11,1
1323442560.65351391,47.37540436,8.55013084,497.01718140,3,11,1
1323442560.70455885,47.37540436,8.55013084,497.05285645,3,11,1
1323442560.75257492,47.37540436,8.55012989,497.19204712,3,11,1
1323442560.80153370,47.37540436,8.55013084,497.21630859,3,11,1
1323442560.85353947,47.37540436,8.55013084,497.25213623,3,11,1
1323442560.90178466,47.37540436,8.55013084,497.28790283,3,11,1
1323442560.95350862,47.37540436,8.55013084,497.32363892,0,11,1
1323442561.00152016,47.37540436,8.55013180,497.46588135,0,11,1
1323442561.05352068,47.37540436,8.55013180,497.50195312,0,11,1
1323442561.10794902,47.37540436,8.55013180,497.53799438,0,11,1
1323442561.15357161,47.37540436,8.55013084,497.57400513,0,11,1
1323442561.20161390,47.37540436,8.55013084,497.60995483,0,11,1
1323442561.25342178,47.37540436,8.55013275,497.76831055,0,11,1
1323442561.30155158,47.37540436,8.55013275,497.80471802,0,11,1
1323442561.35352421,47.37540436,8.55013275,497.84109497,0,11,1
1323442561.40151262,47.37540436,8.55013275,497.87744141,0,11,1
1323442561.45457911,47.37540436,8.55013275,497.91372681,0,11,1
1323442561.50146508,47.37540436,8.55013275,498.06784058,0,11,1
1323442561.55336428,47.37540436,8.55013275,498.10449219,0,11,1
1323442561.60147953,47.37540436,8.55013275,498.14111328,0,11,1
1323442561.65357566,47.37540436,8.55013275,498.17767334,0,11,1
1323442561.70463443,47.37540436,8.55013275,498.21426392,0,11,1
1323442561.75367594,47.37540054,8.55013275,498.37283325,0,11,1
1323442561.80164623,47.37540054,8.55013180,498.41360474,0,11,1
1323442561.85352659,47.37540054,8.55013180,498.45062256,0,11,1
1323442561.90147305,47.37540054,8.55013180,498.48760986,0,11,1
1323442561.95255375,47.37540054,8.55013180,498.52456665,0,11,1
1323442562.00161242,47.37540436,8.55013084,498.69323730,0,11,1
1323442562.05354238,47.37540436,8.55013084,498.73065186,0,11,1
1323442562.10153842,47.37540436,8.55013084,498.76800537,0,11,1
1323442562.15349412,47.37540436,8.55013084,498.80535889,0,11,1
1323442562.20152783,47.37540436,8.55013084,498.84268188,0,11,1
1323442562.25352311,47.37540054,8.55012989,499.00317383,0,11,1
1323442562.31251669,47.37540054,8.55012798,499.04727173,0,11,1
1323442562.35352969,47.37540054,8.55012798,499.09255981,0,11,1
1323442562.40147567,47.37540054,8.55012798,499.12271118,0,11,1
1323442562.45365715,47.37540054,8.55012798,499.16036987,0,11,1
1323442562.50104952,47.37540054,8.55012703,499.32281494,0,11,1
1323442562.56475925,47.37540054,8.55012703,499.36090088,0,11,1
1323442562.60563946,47.37540054,8.55012703,499.40655518,0,11,1
1323442562.65352559,47.37540054,8.55012703,499.43698120,0,11,1
1323442562.70565629,47.37540054,8.55012608,499.47497559,0,11,1
1323442562.75352359,47.37540054,8.55012703,499.65664673,0,11,1
1323442562.80553126,47.37540054,8.55012703,499.69519043,0,11,1
1323442562.85364342,47.37540054,8.55012703,499.73370361,0,11,1
1323442562.90566444,47.37540054,8.55012703,499.77215576,0,11,1
1323442562.95366621,47.37540054,8.55012703,499.81060791,0,11,1
1323442563.00498891,47.37540054,8.55012798,499.97219849,0,11,1
1323442563.05753946,47.37540054,8.55012798,500.01101685,0,11,1
1323442563.11271381,47.37540054,8.55012798,500.04983521,0,11,1
1323442563.15356517,47.37540054,8.55012798,500.09637451,0,11,1
1323442563.20552468,47.37540054,8.55012798,500.12734985,0,11,1
1323442563.25366759,47.37540054,8.55012798,500.27886963,0,11,1
1323442563.30563712,47.37540054,8.55012798,500.31796265,0,11,1
1323442563.35350370,47.37540054,8.55012798,500.35699463,0,11,1
1323442563.40466952,47.37540054,8.55012798,500.39602661,0,11,1
1323442563.45352221,47.37540054,8.55012798,500.43496704,0,11,1
1323442563.50462484,47.37540436,8.55012798,500.58468628,0,11,1
1323442563.55262923,47.37540436,8.55012798,500.62399292,0,11,1
1323442563.60860324,47.37540436,8.55012798,500.66326904,0,11,1
1323442563.65251374,47.37540436,8.55012798,500.70251465,0,11,1
1323442563.70157957,47.37540436,8.55012798,500.74172974,0,11,1
1323442563.75201797,47.37540436,8.55012703,500.89306641,0,11,1
1323442563.80862331,47.37540436,8.55012703,500.93264771,0,11,1
1323442563.85352230,47.37540436,8.55012703,500.97219849,0,11,1
1323442563.90555334,47.37540436,8.55012703,501.01171875,0,11,1
1323442563.95257688,47.37540436,8.55012703,501.05120850,0,11,1
1323442564.00149012,47.37540436,8.55012512,501.19329834,0,11,1
1323442564.05351448,47.37540436,8.55012512,501.23312378,0,11,1
1323442564.10455894,47.37540436,8.55012512,501.27291870,0,11,1
1323442564.15351081,47.37540436,8.55012512,501.31268311,0,11,1
1323442564.20552611,47.37540436,8.55012512,501.35241699,0,11,1
1323442564.25351357,47.37540436,8.55012417,501.47476196,0,11,1
1323442564.31262589,47.37540436,8.55012417,501.51470947,0,11,1
1323442564.35376740,47.37540436,8.55012417,501.56262207,0,11,1
1323442564.40151358,47.37540436,8.55012417,501.59454346,0,11,1
1323442564.45510483,47.37540436,8.55012417,501.63439941,0,11,1
1323442564.50462961,47.37540436,8.55012321,501.76477051,0,11,1
1323442564.55150867,47.37540436,8.55012321,501.80493164,0,11,1
1323442564.60557199,47.37540436,8.55012321,501.84506226,0,11,1
1323442564.65383911,47.37540436,8.55012321,501.88516235,0,11,1
1323442564.70530438,47.37540436,8.55012321,501.92520142,0,11,1
1323442564.75366950,47.37540436,8.55012417,502.03341675,0,11,1
1323442564.80148768,47.37540436,8.55012417,502.07363892,0,11,1
1323442564.85356379,47.37540436,8.55012417,502.11380005,0,11,1
1323442564.90555859,47.37540436,8.55012321,502.15393066,0,11,1
1323442564.96181679,47.37540436,8.55012321,502.19403076,0,7,1
1323442565.00155258,47.37540436,8.55012512,502.27069092,0,7,1
1323442565.05352330,47.37540436,8.55012512,502.30270386,0,7,1
1323442565.10101748,47.37540436,8.55012512,502.34268188,0,7,1
1323442565.15358710,47.37540436,8.55012512,502.38262939,0,7,1
1323442565.20108867,47.37540436,8.55012512,502.42254639,0,7,1
1323442565.25274181,47.37540436,8.55012512,502.49374390,0,7,1
1323442565.30861878,47.37540436,8.55012512,502.53369141,0,7,1
1323442565.35377526,47.37540436,8.55012512,502.57357788,0,7,1
1323442565.40134263,47.37540436,8.55012512,502.61349487,0,7,1
1323442565.45458174,47.37540436,8.55012512,502.65335083,0,7,1
1323442565.50152588,47.37540054,8.55012417,502.72003174,0,7,1
1323442565.55252576,47.37540054,8.55012417,502.75991821,0,7,1
1323442565.60549021,47.37540054,8.55012417,502.79980469,0,7,1
1323442565.65666056,47.37540054,8.55012417,502.83966064,0,7,1
1323442565.70471883,47.37540054,8.55012417,502.87945557,0,7,1
1323442565.75361347,47.37540054,8.55012417,502.92932129,0,7,1
1323442565.80464578,47.37540054,8.55012417,502.96905518,0,7,1
1323442565.85363817,47.37540054,8.55012417,503.00875854,0,7,1
1323442565.90551639,47.37540054,8.55012417,503.04846191,0,7,1
1323442565.95351648,47.37540054,8.55012417,503.08810425,0,7,1
1323442566.00605392,47.37540054,8.55012417,503.11782837,0,7,1
1323442566.05360270,47.37540054,8.55012417,503.15734863,0,7,1
1323442566.10567331,47.37540054,8.55012417,503.19683838,0,7,1
1323442566.16551805,47.37540054,8.55012417,503.23626709,0,7,1
1323442566.20477533,47.37540054,8.55012417,503.28350830,0,7,1
1323442566.25364685,47.37540054,8.55012321,503.27352905,0,7,1
1323442566.31286168,47.37540054,8.55012321,503.31265259,0,7,1
1323442566.35255814,47.37540054,8.55012321,503.35955811,0,7,1
1323442566.40553308,47.37540054,8.55012321,503.39080811,0,7,1
1323442566.45360446,47.37540054,8.55012321,503.42980957,0,7,1
1323442566.50563312,47.37539673,8.55012321,503.40667725,0,7,1
1323442566.55253816,47.37539673,8.55012321,503.44534302,0,7,1
1323442566.60466194,47.37539673,8.55012321,503.48400879,0,7,1
1323442566.65454102,47.37539673,8.55012321,503.52261353,0,7,1
1323442566.70454216,47.37539673,8.55012321,503.56115723,0,7,1
1323442566.75358891,47.37539673,8.55012321,503.51461792,0,7,1
1323442566.80153155,47.37539673,8.55012321,503.55273438,0,7,1
1323442566.85351825,47.37539673,8.55012321,503.59082031,0,7,1
1323442566.91350746,47.37539673,8.55012321,503.62884521,0,7,1
